Location: *
(52.2090°N, 4.1550°W)
Time: 16:20:44
(UTC+00:00)

Cosmos 1818 - Pass Details

Date: 19 July 2019
Orbit: 774 x 800 km, 65.0° (Epoch: 23 August)

Event Time Altitude Azimuth Distance (km) Brightness Sun altitude
Rises 21:40:27 0° 317° (NW) 3,318 9.2 -8.9°
Reaches altitude 10° 21:42:53 10° 317° (NW) 2,384 7.7 -9.1°
Maximum altitude 21:48:24 89° 42° (NE) 806 3.6 -9.6°
Enters shadow 21:53:19 13° 139° (SE) 2,159 5.2 -10.1°
